����,���ϕ���(m/s),���ϕ���,�ő�u�ԕ���(m/s),�ő啗��������,�C��(��),���x(%),10���Ԉړ��ώZ�J��(mm),1���Ԉړ��ώZ�J��(mm),���J��(mm),�݌v�J��(mm),����(���ώZ)(MJ/m2),����(���ώZ)(min),���n�C��(hPa),�C�ʋC��(hPa)
2023-11-20T00:00:00+09:00,0.8,���쐼,1.4,��,6.4,95.8,0,0,0,0,13.83,497,1002.9,1017.2
2023-11-20T00:01:00+09:00,0.8,���쐼,1.4,��,6.2,95.1,0,0,0,0,0,0,1002.8,1017.1
2023-11-20T00:02:00+09:00,0.8,���쐼,1.4,��,5.9,94.4,0,0,0,0,0,0,1002.8,1017.1
2023-11-20T00:03:00+09:00,0.7,���쐼,1.4,��,5.8,93.6,0,0,0,0,0,0,1002.8,1017.1
2023-11-20T00:04:00+09:00,0.7,���쐼,1.4,��,5.9,93.5,0,0,0,0,0,0,1002.8,1017.1
2023-11-20T00:05:00+09:00,0.7,���쐼,1.8,��,6.1,93.9,0,0,0,0,0,0,1002.9,1017.2
2023-11-20T00:06:00+09:00,0.6,��,1.8,��,6.1,94,0,0,0,0,0,0,1002.9,1017.2
2023-11-20T00:07:00+09:00,0.6,���k��,1.8,��,6,93.8,0,0,0,0,0,0,1002.8,1017.1
2023-11-20T00:08:00+09:00,0.5,�k��,1.8,��,6.1,93.5,0,0,0,0,0,0,1002.8,1017.1
2023-11-20T00:09:00+09:00,0.5,�k�k��,1.8,��,6.1,93.7,0,0,0,0,0,0,1002.9,1017.2
2023-11-20T00:10:00+09:00,0.5,�k�k��,1.8,��,6.3,93.7,0,0,0,0,0,0,1002.9,1017.2
2023-11-20T00:11:00+09:00,0.6,�k�k��,1.8,��,6.1,93.5,0,0,0,0,0,0,1002.9,1017.2
2023-11-20T00:12:00+09:00,0.6,�k�k��,1.8,��,5.8,92.7,0,0,0,0,0,0,1002.8,1017.1
2023-11-20T00:13:00+09:00,0.6,�k��,1.8,��,5.9,92.5,0,0,0,0,0,0,1002.8,1017.1
2023-11-20T00:14:00+09:00,0.5,�k��,1.8,��,5.9,92.8,0,0,0,0,0,0,1002.9,1017.2
2023-11-20T00:15:00+09:00,0.5,�k��,1.6,���k��,5.7,92.4,0,0,0,0,0,0,1002.8,1017.1
2023-11-20T00:16:00+09:00,0.5,���k��,1.6,���k��,5.8,92.2,0,0,0,0,0,0,1002.8,1017.1
2023-11-20T00:17:00+09:00,0.5,���k��,1.6,���k��,5.8,92.6,0,0,0,0,0,0,1002.8,1017.1
2023-11-20T00:18:00+09:00,0.4,��,1.6,���k��,5.9,92.7,0,0,0,0,0,0,1002.8,1017.1
2023-11-20T00:19:00+09:00,0.4,��,1.6,���k��,6,93,0,0,0,0,0,0,1002.8,1017.1
2023-11-20T00:20:00+09:00,0.4,���k��,1.6,���k��,6,93.2,0,0,0,0,0,0,1002.7,1017
2023-11-20T00:21:00+09:00,0.2,�É�,1.3,���쐼,6.2,93.2,0,0,0,0,0,0,1002.6,1016.9
2023-11-20T00:22:00+09:00,0.2,�É�,1,�k�k��,6.2,93.2,0,0,0,0,0,0,1002.6,1016.9
2023-11-20T00:23:00+09:00,0.2,�É�,1,�k�k��,6,93.3,0,0,0,0,0,0,1002.7,1017
2023-11-20T00:24:00+09:00,0.2,�É�,1,�k�k��,6,92.7,0,0,0,0,0,0,1002.7,1017
2023-11-20T00:25:00+09:00,0.2,�É�,1,�k�k��,6,92.9,0,0,0,0,0,0,1002.7,1017
2023-11-20T00:26:00+09:00,0.2,�É�,1,�k�k��,6,92.7,0,0,0,0,0,0,1002.6,1016.9
2023-11-20T00:27:00+09:00,0.2,�É�,1,�k�k��,5.9,92.7,0,0,0,0,0,0,1002.6,1016.9
2023-11-20T00:28:00+09:00,0.2,�É�,1,�k�k��,5.8,92.2,0,0,0,0,0,0,1002.7,1017
2023-11-20T00:29:00+09:00,0.3,�k,1,�k�k��,5.9,92.4,0,0,0,0,0,0,1002.7,1017
2023-11-20T00:30:00+09:00,0.3,�k,1,�k�k��,5.9,92.6,0,0,0,0,0,0,1002.7,1017
2023-11-20T00:31:00+09:00,0.4,�k��,1.4,�쐼,5.9,92.7,0,0,0,0,0,0,1002.7,1017
2023-11-20T00:32:00+09:00,0.3,���쐼,1.4,�쐼,6,92.8,0,0,0,0,0,0,1002.6,1016.9
2023-11-20T00:33:00+09:00,0.3,���쐼,1.4,�쐼,6,93,0,0,0,0,0,0,1002.7,1017
2023-11-20T00:34:00+09:00,0.4,�k��,1.4,�쐼,5.9,92.7,0,0,0,0,0,0,1002.7,1017
2023-11-20T00:35:00+09:00,0.4,�k,1.4,�쐼,6,92.8,0,0,0,0,0,0,1002.7,1017
2023-11-20T00:36:00+09:00,0.4,�k�k��,1.4,�쐼,6.1,93.1,0,0,0,0,0,0,1002.7,1017
2023-11-20T00:37:00+09:00,0.4,�k��,1.4,�쐼,6,93.1,0,0,0,0,0,0,1002.8,1017.1
2023-11-20T00:38:00+09:00,0.5,�k,1.4,�쐼,6.1,92.8,0,0,0,0,0,0,1002.8,1017.1
2023-11-20T00:39:00+09:00,0.4,�k�k��,1.4,�쐼,5.9,93.1,0,0,0,0,0,0,1002.8,1017.1
2023-11-20T00:40:00+09:00,0.4,�k�k��,1.4,�쐼,5.7,92.2,0,0,0,0,0,0,1002.8,1017.1
2023-11-20T00:41:00+09:00,0.4,�k�k��,1.3,�쐼,5.6,91.9,0,0,0,0,0,0,1002.8,1017.1
2023-11-20T00:42:00+09:00,0.4,�k�k��,0.8,�k,5.8,92.4,0,0,0,0,0,0,1002.7,1017
2023-11-20T00:43:00+09:00,0.4,�k,0.8,�k,5.8,92.8,0,0,0,0,0,0,1002.7,1017
2023-11-20T00:44:00+09:00,0.3,�k,0.8,�k,5.8,92.7,0,0,0,0,0,0,1002.7,1017
2023-11-20T00:45:00+09:00,0.3,�k,0.8,�k,5.9,92.9,0,0,0,0,0,0,1002.8,1017.1
2023-11-20T00:46:00+09:00,0.3,�k,1,��,5.8,93,0,0,0,0,0,0,1002.8,1017.1
2023-11-20T00:47:00+09:00,0.4,�k,1.7,��,5.8,92.9,0,0,0,0,0,0,1002.8,1017.1
2023-11-20T00:48:00+09:00,0.3,�k,1.7,��,5.8,93.1,0,0,0,0,0,0,1002.8,1017.1
2023-11-20T00:49:00+09:00,0.3,�k,1.7,��,5.6,92.9,0,0,0,0,0,0,1002.8,1017.1
2023-11-20T00:50:00+09:00,0.4,�k,1.7,��,5.6,92.8,0,0,0,0,0,0,1002.8,1017.1
2023-11-20T00:51:00+09:00,0.4,�k,1.7,��,5.8,93.2,0,0,0,0,0,0,1002.8,1017.1
2023-11-20T00:52:00+09:00,0.4,�k�k��,1.7,��,6,93.7,0,0,0,0,0,0,1002.9,1017.2
2023-11-20T00:53:00+09:00,0.4,�k�k��,1.7,��,6.2,94.1,0,0,0,0,0,0,1002.9,1017.2
2023-11-20T00:54:00+09:00,0.4,�k�k��,1.7,��,6,93.8,0,0,0,0,0,0,1002.9,1017.2
2023-11-20T00:55:00+09:00,0.4,�k�k��,1.7,��,6,93.8,0,0,0,0,0,0,1002.9,1017.2
2023-11-20T00:56:00+09:00,0.4,�k�k��,1.7,��,6,93.4,0,0,0,0,0,0,1002.9,1017.2
2023-11-20T00:57:00+09:00,0.3,�k,1.5,���k��,6,93.4,0,0,0,0,0,0,1002.9,1017.2
2023-11-20T00:58:00+09:00,0.3,�k�k��,1.5,���k��,6.1,93.3,0,0,0,0,0,0,1003,1017.3
2023-11-20T00:59:00+09:00,0.3,�k�k��,1.5,���k��,6.1,93.6,0,0,0,0,0,0,1003,1017.3
2023-11-20T01:00:00+09:00,0.3,�k,1.3,��,5.9,93.3,0,0,0,0,0,0,1003,1017.3
2023-11-20T01:01:00+09:00,0.3,�k�k��,1.3,��,6,93.1,0,0,0,0,0,0,1003,1017.3
2023-11-20T01:02:00+09:00,0.3,�k��,1.3,��,5.9,93.2,0,0,0,0,0,0,1003,1017.3
2023-11-20T01:03:00+09:00,0.3,�k�k��,1.3,��,5.9,93.2,0,0,0,0,0,0,1002.9,1017.2
2023-11-20T01:04:00+09:00,0.3,�k,1.3,��,5.8,92.9,0,0,0,0,0,0,1003,1017.3
2023-11-20T01:05:00+09:00,0.4,�k,1.3,��,6,92.9,0,0,0,0,0,0,1003,1017.3
2023-11-20T01:06:00+09:00,0.5,�k��,1.3,��,6.1,93.3,0,0,0,0,0,0,1002.9,1017.2
2023-11-20T01:07:00+09:00,0.5,��쓌,1.4,��,5.9,93.1,0,0,0,0,0,0,1002.9,1017.2
2023-11-20T01:08:00+09:00,0.5,��,1.4,��,5.9,92.9,0,0,0,0,0,0,1002.7,1017
2023-11-20T01:09:00+09:00,0.5,��,1.4,��,5.9,93,0,0,0,0,0,0,1002.8,1017.1
2023-11-20T01:10:00+09:00,0.6,��,2.1,��쐼,5.9,93.2,0,0,0,0,0,0,1002.8,1017.1
2023-11-20T01:11:00+09:00,0.7,��,2.3,��쐼,6,93.4,0,0,0,0,0,0,1002.7,1017
2023-11-20T01:12:00+09:00,0.8,��쓌,2.3,��쐼,5.9,93.2,0,0,0,0,0,0,1002.7,1017
2023-11-20T01:13:00+09:00,0.8,��,2.3,��쐼,5.9,93.1,0,0,0,0,0,0,1002.8,1017.1
2023-11-20T01:14:00+09:00,0.9,��,2.3,��쐼,6.3,93.7,0,0,0,0,0,0,1002.8,1017.1
2023-11-20T01:15:00+09:00,1,��쐼,2.7,��,6,93.8,0,0,0,0,0,0,1002.8,1017.1
2023-11-20T01:16:00+09:00,1.1,��쐼,2.8,��,5.8,93,0,0,0,0,0,0,1002.8,1017.1
2023-11-20T01:17:00+09:00,1.2,�쐼,2.8,��,6.1,93.2,0,0,0,0,0,0,1002.8,1017.1
2023-11-20T01:18:00+09:00,1.1,�쐼,2.8,��,6.2,93.9,0,0,0,0,0,0,1002.8,1017.1
2023-11-20T01:19:00+09:00,1.1,���쐼,2.8,��,6.2,93.9,0,0,0,0,0,0,1002.9,1017.2
2023-11-20T01:20:00+09:00,1.1,���쐼,2.8,��,5.9,93.3,0,0,0,0,0,0,1003,1017.3
2023-11-20T01:21:00+09:00,1.2,��,4.3,��,5.8,92.8,0,0,0,0,0,0,1003,1017.3
2023-11-20T01:22:00+09:00,1.3,��,4.3,��,5.9,92.6,0,0,0,0,0,0,1003,1017.3
2023-11-20T01:23:00+09:00,1.4,��,4.3,��,6,93.2,0,0,0,0,0,0,1002.9,1017.2
2023-11-20T01:24:00+09:00,1.3,��,4.3,��,6.6,94,0,0,0,0,0,0,1002.9,1017.2
2023-11-20T01:25:00+09:00,1.2,��,4.3,��,6.6,95,0,0,0,0,0,0,1002.9,1017.2
2023-11-20T01:26:00+09:00,1.1,��,4.3,��,6.4,94,0,0,0,0,0,0,1002.9,1017.2
2023-11-20T01:27:00+09:00,1,��,4.3,��,6.2,93.5,0,0,0,0,0,0,1002.9,1017.2
2023-11-20T01:28:00+09:00,1,��,4.3,��,6.2,92.8,0,0,0,0,0,0,1002.9,1017.2
2023-11-20T01:29:00+09:00,0.9,��,4.3,��,6.3,92.8,0,0,0,0,0,0,1002.9,1017.2
2023-11-20T01:30:00+09:00,0.9,��,4.3,��,6.4,92.9,0,0,0,0,0,0,1002.9,1017.2
2023-11-20T01:31:00+09:00,0.6,��,3.6,��,6.5,93,0,0,0,0,0,0,1002.9,1017.2
2023-11-20T01:32:00+09:00,0.4,��,1.8,��쓌,6.5,93,0,0,0,0,0,0,1002.9,1017.2
2023-11-20T01:33:00+09:00,0.4,���쐼,1.8,��쓌,6.4,92.8,0,0,0,0,0,0,1002.9,1017.2
2023-11-20T01:34:00+09:00,0.3,��,1.1,���쐼,6.3,92.2,0,0,0,0,0,0,1002.8,1017.1
2023-11-20T01:35:00+09:00,0.2,�É�,0.9,�쐼,6.3,92,0,0,0,0,0,0,1002.8,1017.1
2023-11-20T01:36:00+09:00,0.2,�É�,0.7,��쐼,6.3,91.7,0,0,0,0,0,0,1002.7,1017
2023-11-20T01:37:00+09:00,0.3,��쓌,1.4,��쐼,6.2,91.6,0,0,0,0,0,0,1002.7,1017
2023-11-20T01:38:00+09:00,0.3,��,1.4,��쐼,6.2,91.5,0,0,0,0,0,0,1002.8,1017.1
2023-11-20T01:39:00+09:00,0.4,��,1.8,��쐼,6.2,91.9,0,0,0,0,0,0,1002.7,1017
2023-11-20T01:40:00+09:00,0.5,��,2.2,��,6.1,91.5,0,0,0,0,0,0,1002.7,1017
2023-11-20T01:41:00+09:00,0.6,��,2.2,��,6.1,91.4,0,0,0,0,0,0,1002.6,1016.9
2023-11-20T01:42:00+09:00,0.7,��,2.3,���쐼,6.1,91.8,0,0,0,0,0,0,1002.7,1017
2023-11-20T01:43:00+09:00,0.8,��쐼,2.3,���쐼,6,91.9,0,0,0,0,0,0,1002.7,1017
2023-11-20T01:44:00+09:00,0.8,��쐼,2.3,���쐼,5.9,91.7,0,0,0,0,0,0,1002.7,1017
2023-11-20T01:45:00+09:00,0.9,��쐼,2.3,���쐼,6.3,92.5,0,0,0,0,0,0,1002.7,1017
2023-11-20T01:46:00+09:00,1,��쐼,2.3,���쐼,6.5,93.3,0,0,0,0,0,0,1002.6,1016.9
2023-11-20T01:47:00+09:00,1.1,��쐼,2.5,��쐼,6.6,93.6,0,0,0,0,0,0,1002.6,1016.9
2023-11-20T01:48:00+09:00,1.3,��쐼,3.1,��,6.8,93.5,0,0,0,0,0,0,1002.6,1016.9
2023-11-20T01:49:00+09:00,1.5,��쐼,3.1,��,6.9,93.7,0,0,0,0,0,0,1002.6,1016.9
2023-11-20T01:50:00+09:00,1.5,��쐼,3.1,��,7,93.5,0,0,0,0,0,0,1002.6,1016.9
2023-11-20T01:51:00+09:00,1.5,��쐼,3.1,��,6.6,91.9,0,0,0,0,0,0,1002.7,1017
2023-11-20T01:52:00+09:00,1.5,��쐼,3.1,��,6.2,90.3,0,0,0,0,0,0,1002.6,1016.9
2023-11-20T01:53:00+09:00,1.6,��쐼,3.1,��,6.2,89.8,0,0,0,0,0,0,1002.7,1017
2023-11-20T01:54:00+09:00,1.7,�쐼,3.1,��,6.4,90.5,0,0,0,0,0,0,1002.6,1016.9
2023-11-20T01:55:00+09:00,1.8,�쐼,3.1,��,6.6,91.2,0,0,0,0,0,0,1002.7,1017
2023-11-20T01:56:00+09:00,1.9,�쐼,3.1,��,6.8,92.2,0,0,0,0,0,0,1002.6,1016.9
2023-11-20T01:57:00+09:00,2,�쐼,3.7,��쐼,7.2,92.7,0,0,0,0,0,0,1002.6,1016.8
2023-11-20T01:58:00+09:00,2,�쐼,4.1,��쐼,7.5,92.8,0,0,0,0,0,0,1002.6,1016.8
2023-11-20T01:59:00+09:00,1.9,�쐼,4.1,��쐼,7.3,92,0,0,0,0,0,0,1002.6,1016.8
2023-11-20T02:00:00+09:00,1.9,�쐼,4.1,��쐼,7.4,90.9,0,0,0,0,0,0,1002.6,1016.8
2023-11-20T02:01:00+09:00,2,�쐼,4.1,��쐼,7.5,90.1,0,0,0,0,0,0,1002.6,1016.8
2023-11-20T02:02:00+09:00,2,�쐼,4.1,��쐼,6.9,88.3,0,0,0,0,0,0,1002.6,1016.9
2023-11-20T02:03:00+09:00,1.9,��쐼,4.1,��쐼,7.2,87.9,0,0,0,0,0,0,1002.5,1016.7
2023-11-20T02:04:00+09:00,2.1,��쐼,4.1,��쐼,7.4,87.7,0,0,0,0,0,0,1002.5,1016.7
2023-11-20T02:05:00+09:00,2.1,��쐼,4.1,��쐼,7.3,87.7,0,0,0,0,0,0,1002.5,1016.7
2023-11-20T02:06:00+09:00,2.1,��쐼,4.1,��쐼,7.4,87,0,0,0,0,0,0,1002.5,1016.7
2023-11-20T02:07:00+09:00,2.1,��쐼,4.1,��쐼,7.8,87.5,0,0,0,0,0,0,1002.4,1016.6
2023-11-20T02:08:00+09:00,2.2,��쐼,4,��,7.8,87,0,0,0,0,0,0,1002.4,1016.6
2023-11-20T02:09:00+09:00,2.2,��쐼,4,��,7.9,86.1,0,0,0,0,0,0,1002.4,1016.6
2023-11-20T02:10:00+09:00,2.3,�쐼,4,��,7.9,85.2,0,0,0,0,0,0,1002.5,1016.7
2023-11-20T02:11:00+09:00,2.3,��쐼,4,��,8.1,84.6,0,0,0,0,0,0,1002.5,1016.7
2023-11-20T02:12:00+09:00,2.5,��쐼,4.8,��,8.6,84.6,0,0,0,0,0,0,1002.4,1016.6
2023-11-20T02:13:00+09:00,2.7,��쐼,4.8,��,8.8,83.8,0,0,0,0,0,0,1002.4,1016.6
2023-11-20T02:14:00+09:00,2.8,��쐼,5.7,��,8.9,82,0,0,0,0,0,0,1002.4,1016.6
2023-11-20T02:15:00+09:00,3,��쐼,5.7,��,9,80.5,0,0,0,0,0,0,1002.4,1016.5
2023-11-20T02:16:00+09:00,3.3,��쐼,6.1,��,9.1,79,0,0,0,0,0,0,1002.4,1016.5
2023-11-20T02:17:00+09:00,3.4,��쐼,6.1,��,9.2,78.1,0,0,0,0,0,0,1002.4,1016.5
2023-11-20T02:18:00+09:00,3.5,��쐼,6.1,��,9.2,77,0,0,0,0,0,0,1002.3,1016.4
2023-11-20T02:19:00+09:00,3.6,��쐼,6.1,��,9.2,76.1,0,0,0,0,0,0,1002.2,1016.3
2023-11-20T02:20:00+09:00,3.9,��쐼,6.1,��,9.2,75.6,0,0,0,0,0,0,1002.2,1016.3
2023-11-20T02:21:00+09:00,4.2,��쐼,6.2,��,9.2,75,0,0,0,0,0,0,1002.2,1016.3
2023-11-20T02:22:00+09:00,4.2,��쐼,6.2,��,9.2,74.8,0,0,0,0,0,0,1002.3,1016.4
2023-11-20T02:23:00+09:00,4.3,��,6.2,��,9.1,74.5,0,0,0,0,0,0,1002.2,1016.3
2023-11-20T02:24:00+09:00,4.5,��,6.8,��,9.2,74.5,0,0,0,0,0,0,1002.2,1016.3
2023-11-20T02:25:00+09:00,4.6,��,6.8,��,9.2,74.5,0,0,0,0,0,0,1002.1,1016.2
2023-11-20T02:26:00+09:00,4.5,��,6.8,��,9.1,74.3,0,0,0,0,0,0,1002,1016.1
2023-11-20T02:27:00+09:00,4.6,��,6.8,��,9.1,74.3,0,0,0,0,0,0,1002,1016.1
2023-11-20T02:28:00+09:00,4.7,��,6.8,��,9.1,74.3,0,0,0,0,0,0,1002.1,1016.2
2023-11-20T02:29:00+09:00,4.7,��,6.8,��,9.1,74.4,0,0,0,0,0,0,1002.1,1016.2
2023-11-20T02:30:00+09:00,4.7,��,6.8,��,9.2,74.5,0,0,0,0,0,0,1002.2,1016.3
2023-11-20T02:31:00+09:00,4.5,��,6.8,��,9.3,74.5,0,0,0,0,0,0,1002.2,1016.3
2023-11-20T02:32:00+09:00,4.5,��,6.8,��,9.4,74.4,0,0,0,0,0,0,1002.3,1016.4
2023-11-20T02:33:00+09:00,4.4,��,6.8,��,9.3,73.9,0,0,0,0,0,0,1002.2,1016.3
2023-11-20T02:34:00+09:00,4.1,��,6.2,��쐼,9.3,73.6,0,0,0,0,0,0,1002.3,1016.4
2023-11-20T02:35:00+09:00,4,��,6.1,��,9.3,73.3,0,0,0,0,0,0,1002.3,1016.4
2023-11-20T02:36:00+09:00,3.9,��,6.1,��,9.2,73.4,0,0,0,0,0,0,1002.3,1016.4
2023-11-20T02:37:00+09:00,3.7,��,6.1,��,9.1,73.4,0,0,0,0,0,0,1002.2,1016.3
2023-11-20T02:38:00+09:00,3.3,��,6.1,��,9,73.5,0,0,0,0,0,0,1002.1,1016.2
2023-11-20T02:39:00+09:00,3.1,��,5,��,9,73.8,0,0,0,0,0,0,1002.1,1016.2
2023-11-20T02:40:00+09:00,2.8,��,5,��,8.9,74.2,0,0,0,0,0,0,1002,1016.1
2023-11-20T02:41:00+09:00,2.7,��,5,��,8.9,74.5,0,0,0,0,0,0,1002.1,1016.2
2023-11-20T02:42:00+09:00,2.6,��,5.1,��,8.9,74.9,0,0,0,0,0,0,1002.1,1016.2
2023-11-20T02:43:00+09:00,2.6,��,5.1,��,9,75.2,0,0,0,0,0,0,1002.2,1016.3
2023-11-20T02:44:00+09:00,2.7,��,5.1,��,9.1,75.4,0,0,0,0,0,0,1002.2,1016.3
2023-11-20T02:45:00+09:00,2.7,��,5.1,��,9.1,75.1,0,0,0,0,0,0,1002.2,1016.3
2023-11-20T02:46:00+09:00,2.8,��,5.1,��,9,74.7,0,0,0,0,0,0,1002.2,1016.3
2023-11-20T02:47:00+09:00,2.9,��,5.1,��,8.9,74.8,0,0,0,0,0,0,1002.2,1016.4
2023-11-20T02:48:00+09:00,3,��,5.1,��,8.8,74.8,0,0,0,0,0,0,1002.1,1016.3
2023-11-20T02:49:00+09:00,3.1,��,5.1,��,8.8,74.9,0,0,0,0,0,0,1002.1,1016.3
2023-11-20T02:50:00+09:00,3.4,��,5.1,��,8.8,75.4,0,0,0,0,0,0,1002.2,1016.4
2023-11-20T02:51:00+09:00,3.5,��,5.1,��,9,75.8,0,0,0,0,0,0,1002.2,1016.3
2023-11-20T02:52:00+09:00,3.5,��,4.8,��,9.1,75.9,0,0,0,0,0,0,1002.2,1016.3
2023-11-20T02:53:00+09:00,3.5,��,4.8,��,9.1,75.4,0,0,0,0,0,0,1002.2,1016.3
2023-11-20T02:54:00+09:00,3.4,��,5.2,��,9.1,75.2,0,0,0,0,0,0,1002.1,1016.2
2023-11-20T02:55:00+09:00,3.5,��,5.2,��,9.1,74.9,0,0,0,0,0,0,1002,1016.1
2023-11-20T02:56:00+09:00,3.5,��,5.2,��,9.2,74.8,0,0,0,0,0,0,1002,1016.1
2023-11-20T02:57:00+09:00,3.6,��,5.2,��,9.2,74.8,0,0,0,0,0,0,1002.1,1016.2
2023-11-20T02:58:00+09:00,3.7,��,5.3,��,9.4,74.7,0,0,0,0,0,0,1002.1,1016.2
2023-11-20T02:59:00+09:00,3.7,��,5.3,��,9.5,74.6,0,0,0,0,0,0,1002.1,1016.2
2023-11-20T03:00:00+09:00,3.7,��,5.3,��,9.4,73.9,0,0,0,0,0,0,1002,1016.1
2023-11-20T03:01:00+09:00,3.7,��,5.3,��,9.4,73.6,0,0,0,0,0,0,1002,1016.1
2023-11-20T03:02:00+09:00,3.8,��,5.5,��,9.4,73.4,0,0,0,0,0,0,1002,1016.1
2023-11-20T03:03:00+09:00,3.8,��,5.5,��,9.3,73.4,0,0,0,0,0,0,1002.1,1016.2
2023-11-20T03:04:00+09:00,3.9,��,5.5,��,9.3,73.4,0,0,0,0,0,0,1002.1,1016.2
2023-11-20T03:05:00+09:00,4,��,6.7,��쐼,9.6,73.9,0,0,0,0,0,0,1002.2,1016.3
2023-11-20T03:06:00+09:00,3.9,��,6.7,��쐼,9.6,73.7,0,0,0,0,0,0,1002.2,1016.3
2023-11-20T03:07:00+09:00,4,��,6.7,��쐼,9.8,73.2,0,0,0,0,0,0,1002.1,1016.2
2023-11-20T03:08:00+09:00,4.1,��,6.7,��쐼,9.8,72.7,0,0,0,0,0,0,1002,1016.1
2023-11-20T03:09:00+09:00,4.1,��,6.7,��쐼,9.7,72.2,0,0,0,0,0,0,1002.1,1016.2
2023-11-20T03:10:00+09:00,4.3,��,6.7,��쐼,9.7,71.6,0,0,0,0,0,0,1002.1,1016.2
2023-11-20T03:11:00+09:00,4.5,��,6.7,��쐼,9.8,71.8,0,0,0,0,0,0,1002.1,1016.2
2023-11-20T03:12:00+09:00,4.5,��,6.7,��쐼,9.6,71.5,0,0,0,0,0,0,1002.1,1016.2
2023-11-20T03:13:00+09:00,4.7,��,7.2,��,9.7,71.7,0,0,0,0,0,0,1002,1016.1
2023-11-20T03:14:00+09:00,4.7,��,7.2,��,9.6,71.8,0,0,0,0,0,0,1001.9,1016
2023-11-20T03:15:00+09:00,4.8,��,7.8,��,9.7,72.2,0,0,0,0,0,0,1001.9,1016
2023-11-20T03:16:00+09:00,4.9,��,7.8,��,9.7,72.2,0,0,0,0,0,0,1002,1016.1
2023-11-20T03:17:00+09:00,5,��,7.8,��,9.6,71.8,0,0,0,0,0,0,1002,1016.1
2023-11-20T03:18:00+09:00,5,��,7.8,��,9.9,72.2,0,0,0,0,0,0,1002,1016.1
2023-11-20T03:19:00+09:00,5.1,��,7.8,��,10,72,0,0,0,0,0,0,1001.9,1016
2023-11-20T03:20:00+09:00,5.1,��,7.8,��,9.9,71.3,0,0,0,0,0,0,1001.9,1016
2023-11-20T03:21:00+09:00,5.2,��,7.8,��,10.1,71.2,0,0,0,0,0,0,1001.9,1016
2023-11-20T03:22:00+09:00,5.4,��,7.8,��,10.2,71,0,0,0,0,0,0,1002,1016.1
2023-11-20T03:23:00+09:00,5.4,��,7.8,��,10.2,70.5,0,0,0,0,0,0,1002,1016.1
2023-11-20T03:24:00+09:00,5.4,��,7.8,��,10.3,70.3,0,0,0,0,0,0,1001.9,1016
2023-11-20T03:25:00+09:00,5.3,��,7.7,��,10.3,70.1,0,0,0,0,0,0,1001.9,1016
2023-11-20T03:26:00+09:00,5.4,��,7.7,��,10.4,69.8,0,0,0,0,0,0,1001.9,1016
2023-11-20T03:27:00+09:00,5.4,��,7.7,��,10.3,69.6,0,0,0,0,0,0,1002,1016.1
2023-11-20T03:28:00+09:00,5.4,��,7.7,��,10.3,69.3,0,0,0,0,0,0,1002,1016.1
2023-11-20T03:29:00+09:00,5.3,��,7.7,��,10.3,69.3,0,0,0,0,0,0,1002,1016.1
2023-11-20T03:30:00+09:00,5.2,��,7.7,��,10.3,69.4,0,0,0,0,0,0,1002,1016.1
2023-11-20T03:31:00+09:00,5.3,��,9.2,��쐼,10.4,69.4,0,0,0,0,0,0,1001.9,1016
2023-11-20T03:32:00+09:00,5.3,��,9.2,��쐼,10.4,69.4,0,0,0,0,0,0,1001.9,1016
2023-11-20T03:33:00+09:00,5.3,��,9.2,��쐼,10.4,69,0,0,0,0,0,0,1001.9,1016
2023-11-20T03:34:00+09:00,5.4,��,9.2,��쐼,10.2,68.9,0,0,0,0,0,0,1001.9,1016
2023-11-20T03:35:00+09:00,5.4,��,9.2,��쐼,10.2,69.2,0,0,0,0,0,0,1001.8,1015.9
2023-11-20T03:36:00+09:00,5.5,��,9.2,��쐼,10.2,69.6,0,0,0,0,0,0,1001.8,1015.9
2023-11-20T03:37:00+09:00,5.6,��,9.2,��쐼,10.4,69.8,0,0,0,0,0,0,1001.7,1015.8
2023-11-20T03:38:00+09:00,5.8,��,9.2,��쐼,10.4,69.5,0,0,0,0,0,0,1001.8,1015.9
2023-11-20T03:39:00+09:00,5.9,��,9.2,��쐼,10.3,69.1,0,0,0,0,0,0,1001.9,1016
2023-11-20T03:40:00+09:00,5.8,��,9.2,��쐼,10.3,69,0,0,0,0,0,0,1001.9,1016
2023-11-20T03:41:00+09:00,5.7,��,8.7,��,10.4,69.2,0,0,0,0,0,0,1002,1016.1
2023-11-20T03:42:00+09:00,5.6,��,8.7,��,10.4,69.2,0,0,0,0,0,0,1002,1016.1
2023-11-20T03:43:00+09:00,5.5,��,8.7,��,10.4,69.1,0,0,0,0,0,0,1002.1,1016.2
2023-11-20T03:44:00+09:00,5.4,��,8.7,��,10.5,69.1,0,0,0,0,0,0,1002.1,1016.2
2023-11-20T03:45:00+09:00,5.5,��,8.7,��,10.6,69.1,0,0,0,0,0,0,1002.2,1016.3
2023-11-20T03:46:00+09:00,5.2,��,8.7,��,10.5,68.5,0,0,0,0,0,0,1002.3,1016.4
2023-11-20T03:47:00+09:00,4.9,��,7.7,��,10.5,68.3,0,0,0,0,0,0,1002.3,1016.4
2023-11-20T03:48:00+09:00,4.6,��,7.5,��쐼,10.4,68.2,0,0,0,0,0,0,1002.2,1016.3
2023-11-20T03:49:00+09:00,4.4,��,7.5,��쐼,10.2,68.3,0,0,0,0,0,0,1002.2,1016.3
2023-11-20T03:50:00+09:00,4.3,��,7.5,��쐼,10.2,69,0,0,0,0,0,0,1002.3,1016.4
2023-11-20T03:51:00+09:00,4.2,��,7.5,��쐼,10.1,69,0,0,0,0,0,0,1002.3,1016.4
2023-11-20T03:52:00+09:00,3.9,��,7.5,��쐼,10.1,69.5,0,0,0,0,0,0,1002.3,1016.4
2023-11-20T03:53:00+09:00,3.7,��,7.5,��쐼,10.2,69.7,0,0,0,0,0,0,1002.2,1016.3
2023-11-20T03:54:00+09:00,3.5,��,7.5,��쐼,10.1,69.8,0,0,0,0,0,0,1002.2,1016.3
2023-11-20T03:55:00+09:00,3.2,��,5.8,��,10.2,69.8,0,0,0,0,0,0,1002.2,1016.3
2023-11-20T03:56:00+09:00,3.2,��,5.8,��,10.3,70.1,0,0,0,0,0,0,1002.2,1016.3
2023-11-20T03:57:00+09:00,3,��,5.8,��,10.2,69.8,0,0,0,0,0,0,1002.2,1016.3
2023-11-20T03:58:00+09:00,2.9,��,5.6,��,10.1,69.6,0,0,0,0,0,0,1002.2,1016.3
2023-11-20T03:59:00+09:00,3,��,5.6,��,10,69.9,0,0,0,0,0,0,1002.1,1016.2
2023-11-20T04:00:00+09:00,,,,,,,,,,,,,,
2023-11-20T04:01:00+09:00,3,��,5.6,��,9.9,70.4,0,0,0,0,0,0,1002.1,1016.2
2023-11-20T04:02:00+09:00,3.2,��,5.6,��,10,70.8,0,0,0,0,0,0,1002.2,1016.3
2023-11-20T04:03:00+09:00,3.3,��,5.6,��,9.8,70.9,0,0,0,0,0,0,1002.2,1016.3
2023-11-20T04:04:00+09:00,3.4,��,5.4,��쐼,9.9,71.1,0,0,0,0,0,0,1002.1,1016.2
2023-11-20T04:05:00+09:00,3.3,��,5.4,��쐼,9.8,71.3,0,0,0,0,0,0,1002.2,1016.3
2023-11-20T04:06:00+09:00,3.4,��쐼,5.4,��쐼,9.8,71.4,0,0,0,0,0,0,1002.1,1016.2
2023-11-20T04:07:00+09:00,3.5,��,5.4,��쐼,9.8,71.5,0,0,0,0,0,0,1002.1,1016.2
2023-11-20T04:08:00+09:00,3.5,��,5.4,��쐼,9.7,71.7,0,0,0,0,0,0,1002,1016.1
2023-11-20T04:09:00+09:00,3.6,��,5.4,��쐼,9.7,71.9,0,0,0,0,0,0,1002.1,1016.2
2023-11-20T04:10:00+09:00,3.6,��,5.4,��쐼,9.6,72.2,0,0,0,0,0,0,1002,1016.1
2023-11-20T04:11:00+09:00,3.6,��,5.6,��,9.6,72.4,0,0,0,0,0,0,1001.9,1016
2023-11-20T04:12:00+09:00,3.6,��,5.8,��,9.5,72.6,0,0,0,0,0,0,1001.9,1016
2023-11-20T04:13:00+09:00,3.6,��쐼,5.8,��,9.4,72.8,0,0,0,0,0,0,1001.8,1015.9
2023-11-20T04:14:00+09:00,3.7,��쐼,5.8,��,9.4,73.3,0,0,0,0,0,0,1001.9,1016
2023-11-20T04:15:00+09:00,3.9,��쐼,6,��쐼,9.5,73.8,0,0,0,0,0,0,1002,1016.1
2023-11-20T04:16:00+09:00,3.9,��쐼,6,��쐼,9.5,74,0,0,0,0,0,0,1002,1016.1
2023-11-20T04:17:00+09:00,3.9,��쐼,6,��쐼,9.5,74,0,0,0,0,0,0,1002.1,1016.2
2023-11-20T04:18:00+09:00,3.9,��쐼,6,��쐼,9.5,74,0,0,0,0,0,0,1002.1,1016.2
2023-11-20T04:19:00+09:00,3.9,��쐼,6,��쐼,9.4,73.9,0,0,0,0,0,0,1002.1,1016.2
2023-11-20T04:20:00+09:00,3.9,��쐼,6,��쐼,9.4,74,0,0,0,0,0,0,1002.1,1016.2
2023-11-20T04:21:00+09:00,4,��쐼,6,��쐼,9.4,74.3,0,0,0,0,0,0,1002.1,1016.2
2023-11-20T04:22:00+09:00,4.1,��쐼,6,��쐼,9.5,74.7,0,0,0,0,0,0,1002.1,1016.2
2023-11-20T04:23:00+09:00,4.1,��쐼,6,��쐼,9.4,74.3,0,0,0,0,0,0,1002,1016.1
2023-11-20T04:24:00+09:00,4,��쐼,6,��쐼,9.4,74,0,0,0,0,0,0,1002,1016.1
2023-11-20T04:25:00+09:00,3.9,��쐼,6,��,9.3,74.1,0,0,0,0,0,0,1002.1,1016.2
2023-11-20T04:26:00+09:00,4,��쐼,6,��,9.3,74.4,0,0,0,0,0,0,1002.2,1016.3
2023-11-20T04:27:00+09:00,4,��쐼,6,��,9.3,74.3,0,0,0,0,0,0,1002.1,1016.2
2023-11-20T04:28:00+09:00,3.9,��쐼,6,��,9.2,74.6,0,0,0,0,0,0,1002.2,1016.3
2023-11-20T04:29:00+09:00,3.8,��쐼,6,��,9.3,74.9,0,0,0,0,0,0,1002.2,1016.3
2023-11-20T04:30:00+09:00,3.7,��쐼,6,��,9.4,75.3,0,0,0,0,0,0,1002.2,1016.3
2023-11-20T04:31:00+09:00,3.5,��쐼,5.7,�쐼,9.5,75,0,0,0,0,0,0,1002.3,1016.4
2023-11-20T04:32:00+09:00,3.3,��쐼,5.7,�쐼,9.4,74.6,0,0,0,0,0,0,1002.3,1016.4
2023-11-20T04:33:00+09:00,3.2,��쐼,5.7,�쐼,9.2,74.2,0,0,0,0,0,0,1002.2,1016.3
2023-11-20T04:34:00+09:00,3.1,��쐼,5.7,�쐼,9,74.3,0,0,0,0,0,0,1002.2,1016.3
2023-11-20T04:35:00+09:00,2.9,��쐼,5.7,�쐼,8.8,74.2,0,0,0,0,0,0,1002.1,1016.3
2023-11-20T04:36:00+09:00,2.7,��쐼,4.9,�쐼,9.1,75.7,0,0,0,0,0,0,1002.1,1016.2
2023-11-20T04:37:00+09:00,2.5,��쐼,4.9,�쐼,9.2,76.2,0,0,0,0,0,0,1002.1,1016.2
2023-11-20T04:38:00+09:00,2.5,��쐼,4.9,�쐼,9,75.8,0,0,0,0,0,0,1002.1,1016.2
2023-11-20T04:39:00+09:00,2.3,�쐼,4.9,�쐼,8.9,75.6,0,0,0,0,0,0,1002.1,1016.2
2023-11-20T04:40:00+09:00,2.2,�쐼,4.8,��쐼,8.6,75.5,0,0,0,0,0,0,1002,1016.2
2023-11-20T04:41:00+09:00,2,�쐼,3.8,��쐼,8.5,75.8,0,0,0,0,0,0,1002,1016.2
2023-11-20T04:42:00+09:00,1.9,�쐼,3.8,��쐼,8.5,76.5,0,0,0,0,0,0,1002.1,1016.3
2023-11-20T04:43:00+09:00,1.9,�쐼,3.8,��쐼,8.6,77.5,0,0,0,0,0,0,1002.1,1016.3
2023-11-20T04:44:00+09:00,1.9,�쐼,3.8,��쐼,8.4,77.7,0,0,0,0,0,0,1002.2,1016.4
2023-11-20T04:45:00+09:00,1.9,���쐼,3.8,��쐼,8.1,77.2,0,0,0,0,0,0,1002.2,1016.4
2023-11-20T04:46:00+09:00,1.9,���쐼,3.3,��,7.9,77.9,0,0,0,0,0,0,1002.2,1016.4
2023-11-20T04:47:00+09:00,2,���쐼,3.4,��,7.9,78.8,0,0,0,0,0,0,1002.3,1016.5
2023-11-20T04:48:00+09:00,2.1,���쐼,3.4,��,8,80.1,0,0,0,0,0,0,1002.3,1016.5
2023-11-20T04:49:00+09:00,2.2,���쐼,3.5,���쐼,7.8,80.3,0,0,0,0,0,0,1002.3,1016.5
2023-11-20T04:50:00+09:00,2.3,���쐼,3.7,��,7.7,80.4,0,0,0,0,0,0,1002.3,1016.5
2023-11-20T04:51:00+09:00,2.3,���쐼,3.7,��,7.8,81.5,0,0,0,0,0,0,1002.3,1016.5
2023-11-20T04:52:00+09:00,2.2,���쐼,3.7,��,7.6,81.6,0,0,0,0,0,0,1002.3,1016.5
2023-11-20T04:53:00+09:00,2.2,��,3.7,��,7.5,81.7,0,0,0,0,0,0,1002.4,1016.6
2023-11-20T04:54:00+09:00,2.3,��,3.8,��,7.3,81.5,0,0,0,0,0,0,1002.4,1016.6
2023-11-20T04:55:00+09:00,2.3,��,3.8,��,7.3,82.2,0,0,0,0,0,0,1002.4,1016.6
2023-11-20T04:56:00+09:00,2.2,��,3.8,��,7.6,83.4,0,0,0,0,0,0,1002.4,1016.6
2023-11-20T04:57:00+09:00,2.1,��,3.8,��,7.7,84.5,0,0,0,0,0,0,1002.4,1016.6
2023-11-20T04:58:00+09:00,2,��,3.8,��,7.8,84.6,0,0,0,0,0,0,1002.5,1016.7
2023-11-20T04:59:00+09:00,1.8,��,3.8,��,7.7,84.2,0,0,0,0,0,0,1002.5,1016.7
2023-11-20T05:00:00+09:00,1.7,��,3.8,��,7.7,83.9,0,0,0,0,0,0,1002.5,1016.7
2023-11-20T05:01:00+09:00,1.7,��,3.8,��,7.8,83.9,0,0,0,0,0,0,1002.4,1016.6
2023-11-20T05:02:00+09:00,1.7,��,3.8,��,8,84,0,0,0,0,0,0,1002.4,1016.6
2023-11-20T05:03:00+09:00,1.6,��,3.8,��,8.2,84,0,0,0,0,0,0,1002.4,1016.6
2023-11-20T05:04:00+09:00,1.5,���쐼,3.4,���k��,8.3,83.7,0,0,0,0,0,0,1002.4,1016.6
2023-11-20T05:05:00+09:00,1.4,���쐼,3.4,���k��,8.3,83.2,0,0,0,0,0,0,1002.4,1016.6
2023-11-20T05:06:00+09:00,1.2,���쐼,2.3,���k��,8.3,82.5,0,0,0,0,0,0,1002.5,1016.7
2023-11-20T05:07:00+09:00,1.1,�쐼,2,��쐼,8.3,81.7,0,0,0,0,0,0,1002.4,1016.6
2023-11-20T05:08:00+09:00,1.2,�쐼,2.7,��,8.2,81.2,0,0,0,0,0,0,1002.4,1016.6
2023-11-20T05:09:00+09:00,1.3,�쐼,3.2,��쐼,8.2,81,0,0,0,0,0,0,1002.4,1016.6
2023-11-20T05:10:00+09:00,1.4,�쐼,3.2,��쐼,8.1,80.9,0,0,0,0,0,0,1002.4,1016.6
2023-11-20T05:11:00+09:00,1.4,��쐼,3.2,��쐼,8,80.8,0,0,0,0,0,0,1002.5,1016.7
2023-11-20T05:12:00+09:00,1.5,��쐼,3.2,��쐼,8,81,0,0,0,0,0,0,1002.5,1016.7
2023-11-20T05:13:00+09:00,1.6,��쐼,3.2,��쐼,7.9,81.3,0,0,0,0,0,0,1002.4,1016.6
2023-11-20T05:14:00+09:00,1.7,��쐼,3.2,��쐼,8,81.6,0,0,0,0,0,0,1002.4,1016.6
2023-11-20T05:15:00+09:00,1.7,��쐼,3.2,��쐼,7.9,81.8,0,0,0,0,0,0,1002.5,1016.7
2023-11-20T05:16:00+09:00,1.8,��쐼,3.2,��쐼,7.9,82,0,0,0,0,0,0,1002.5,1016.7